Dewpoint
29 27 26 26 28 32 43 49 51 55 58 56 55 55 56 60 58 52 51 56 59 60 61 62 63 64 65 66 66 68 67 68 69 68 67 66 68 67 68 69 70 67 68 68
25 25 27 28 28 29 28 43 51 56 56 55 55 55 58 59 58 55 50 55 57 59 60 61 63 64 65 65 66 68 67 69 69 68 69 68 69 69 68 69 70 70 64 68
24 25 26 27 29 41 39 49 51 51 51 55 55 52 56 58 59 57 56 55 57 59 60 60 61 63 64 64 67 68 67 69 69 69 69 69 69 69 69 69 70 69 70 70
19 20 20 22 25 31 35 52 49 48 49 48 53 44 51 55 56 55 55 54 55 59 60 60 61 63 64 65 67 67 69 69 68 69 68 67 66 66 67 69 68 69 70 69
19 15 15 17 17 43 48 52 50 51 52 51 51 47 48 55 53 53 54 55 54 58 60 60 61 63 64 65 66 67 68 68 68 68 68 67 66 66 68 69 68 67 69 69
21 22 12 24 47 51 53 51 53 53 51 45 47 48 48 51 50 51 52 55 55 57 59 60 61 63 64 66 66 67 68 67 68 66 68 67 67 66 67 67 68 68 69 69
22 22 34 53 50 52 44 42 42 41 43 42 49 49 48 50 50 50 51 53 55 55 58 60 61 62 64 66 67 67 68 67 67 66 67 67 67 67 67 67 68 68 69 68
19 15 12 31 49 46 43 41 39 37 39 43 49 46 44 48 51 50 51 52 55 53 58 60 62 62 63 65 67 67 68 67 68 68 67 68 68 68 69 68 69 69 69 68
19 20 23 23 40 43 43 40 42 45 46 44 47 48 51 51 52 54 50 51 55 54 59 61 62 63 63 64 67 67 68 68 69 68 69 69 69 69 68 69 69 69 69 69
29 24 26 25 30 44 37 37 36 39 38 36 45 43 42 51 56 55 53 50 53 56 58 60 62 64 65 64 66 68 68 68 69 69 69 69 69 69 69 69 69 69 70 70
35 29 26 26 23 23 23 24 28 33 37 38 41 42 48 49 56 55 53 52 53 56 56 58 60 64 66 66 67 69 69 69 69 69 69 69 69 69 70 70 70 70 70 71
33 28 26 26 28 30 23 25 24 23 22 36 39 31 55 56 57 57 56 54 54 57 56 58 60 61 64 67 69 69 69 69 69 70 69 69 69 69 70 70 70 71 71 71
36 27 25 24 30 32 30 37 38 22 21 22 17 19 54 55 55 56 55 57 58 59 58 59 62 62 64 67 69 69 69 69 69 70 70 69 69 69 69 70 71 71 71 71
40 28 26 24 28 32 38 45 48 27 19 17 20 20 53 54 54 56 58 59 59 59 59 58 61 63 65 66 69 69 70 70 70 70 69 69 69 70 70 70 69 70 71 70
36 34 32 29 35 42 43 44 48 49 46 21 23 37 54 54 54 56 56 58 60 60 61 60 61 64 66 67 69 69 70 69 69 70 70 69 70 70 70 69 69 70 70 71
39 35 38 37 41 41 40 42 46 50 49 50 50 50 56 56 55 56 58 59 60 62 62 63 63 64 67 68 69 68 68 68 69 68 68 68 68 68 68 68 68 68 69 70
37 37 37 33 40 40 36 41 43 51 49 49 45 49 53 55 56 57 58 59 61 62 62 63 64 64 65 67 68 67 68 68 68 68 68 68 68 67 67 69 69 68 68 68
36 37 37 33 37 29 40 47 45 50 51 52 50 51 53 56 59 60 60 58 58 60 63 64 64 65 66 68 67 68 68 68 67 67 68 68 68 67 67 68 68 68 68 68
41 38 37 33 34 40 42 44 44 45 48 52 56 57 58 58 57 58 59 59 59 60 60 63 65 66 67 67 68 67 67 67 67 67 67 68 68 67 67 68 68 67 67 67
40 39 35 35 31 34 40 45 47 49 42 52 54 57 57 56 49 54 58 58 58 59 60 60 63 66 66 66 67 66 66 66 66 66 67 67 67 67 67 67 67 66 66 64
37 37 37 37 37 38 43 44 45 37 40 53 55 55 55 53 54 57 56 56 57 58 59 60 60 60 61 64 65 64 65 65 66 67 67 67 66 66 66 66 65 64 61 58
33 34 34 37 33 32 45 44 39 43 50 51 52 58 58 56 56 56 55 56 56 57 58 58 58 58 60 61 62 61 61 61 62 65 66 65 65 67 66 64 63 60 58 56
33 39 38 38 38 45 49 47 50 50 52 52 54 59 58 57 55 54 53 55 55 55 55 56 57 57 58 60 60 59 59 61 61 59 58 56 55 55 58 63 62 60 58 53
40 44 40 40 42 45 49 50 51 46 49 54 58 59 58 56 56 54 53 54 54 54 54 54 54 54 55 56 57 59 59 60 59 56 55 54 51 48 44 41 42 50 56 56
42 43 41 42 44 45 43 44 46 53 58 58 59 58 58 56 55 54 53 52 52 53 53 53 52 52 53 54 55 56 56 57 58 57 54 51 50 51 47 44 42 39 38 40
43 40 40 38 42 41 40 42 48 51 56 57 57 57 58 56 54 53 52 52 52 52 52 51 51 51 51 51 52 53 55 55 55 56 55 52 51 47 46 46 45 43 44 44
Lifted_Index
3 3 2 2 2 1 0 -0 -1 -1 -1 -1 -1 -1 -1 -1 -1 1 2 1 0 -0 -0 -1 -1 -1 -2 -2 -3 -3 -3 -3 -3 -3 -3 -2 -2 -2 -3 -3 -4 -3 -2 -2
3 3 2 2 2 2 1 -0 -1 -1 -0 -0 -1 -1 -1 -1 -1 0 1 1 0 -0 -0 -1 -1 -1 -1 -2 -3 -3 -3 -3 -3 -3 -3 -2 -2 -2 -3 -3 -4 -3 -3 -2
3 3 2 2 2 2 1 -0 -1 -0 0 -0 -0 -0 -1 -1 -0 0 1 1 1 -0 -0 -1 -1 -1 -1 -2 -2 -3 -2 -2 -2 -2 -2 -2 -2 -2 -3 -3 -4 -3 -3 -3
3 3 3 3 2 1 0 -1 -1 -0 0 0 -0 0 -0 -0 -0 0 1 2 1 0 -0 -0 -1 -1 -1 -2 -2 -3 -2 -2 -2 -2 -2 -2 -2 -2 -3 -3 -3 -3 -3 -3
3 3 3 2 2 1 -1 -2 -2 -1 -0 -0 -0 0 0 -0 -0 0 1 1 1 0 -0 -0 -0 -1 -1 -2 -2 -2 -2 -2 -2 -2 -2 -2 -2 -2 -2 -3 -3 -3 -3 -3
3 3 3 1 -0 -1 -2 -2 -2 -1 -0 -0 -0 0 0 0 0 -0 0 1 1 1 -0 -0 -0 -1 -1 -2 -2 -2 -2 -2 -2 -2 -2 -2 -2 -2 -2 -2 -3 -3 -3 -3
3 3 1 -1 -2 -2 -1 -1 -0 -0 -0 -0 -0 -0 0 1 1 0 0 1 1 1 0 -0 -0 -1 -1 -2 -2 -2 -2 -2 -2 -1 -1 -2 -2 -2 -2 -2 -3 -3 -3 -3
2 2 1 -0 -2 -2 -1 -1 -0 -0 -1 -1 -0 0 0 0 0 0 0 1 1 1 0 -0 -0 -1 -1 -2 -2 -2 -2 -2 -2 -2 -1 -2 -2 -2 -2 -2 -2 -2 -3 -3
1 1 1 1 -0 -1 -1 -1 -1 -1 -1 -1 -0 0 0 -0 -1 -1 -1 0 1 1 1 -0 -1 -1 -1 -1 -2 -2 -2 -2 -2 -2 -2 -2 -2 -2 -3 -3 -2 -2 -3 -3
1 1 1 1 1 -0 -0 -0 -1 -1 -1 -1 -1 -0 -0 -1 -2 -2 -2 -1 0 1 0 -0 -1 -1 -1 -1 -2 -2 -2 -2 -2 -2 -2 -2 -2 -3 -3 -3 -3 -3 -3 -3
1 1 1 1 1 1 1 1 1 0 -0 -1 -1 -1 -1 -2 -2 -3 -3 -2 -0 -0 -0 -0 -1 -1 -1 -2 -2 -3 -3 -3 -3 -3 -3 -2 -3 -3 -3 -3 -3 -3 -3 -3
1 1 1 1 1 0 0 1 1 1 1 0 -0 -1 -2 -2 -2 -3 -2 -1 -1 -0 -1 -1 -1 -1 -1 -2 -3 -3 -3 -3 -3 -3 -3 -3 -3 -3 -4 -4 -4 -3 -4 -4
1 1 1 0 0 -0 -1 -1 -0 1 2 1 1 -0 -2 -2 -2 -2 -1 -1 -0 -0 -0 -1 -1 -1 -1 -2 -3 -3 -3 -3 -3 -3 -3 -3 -3 -3 -3 -4 -4 -4 -4 -4
1 1 1 0 -0 -1 -1 -2 -1 -0 1 2 1 0 -1 -2 -1 -1 -1 -1 -1 -0 -0 -1 -1 -2 -2 -3 -3 -4 -4 -3 -3 -3 -3 -3 -3 -3 -3 -3 -3 -3 -4 -4
0 0 0 -0 -1 -1 -1 -2 -2 -2 -1 1 1 -0 -1 -2 -1 -1 -1 -1 -2 -1 -1 -1 -2 -2 -3 -4 -4 -4 -4 -4 -3 -3 -3 -3 -3 -3 -3 -3 -3 -3 -3 -3
-0 -0 -1 -1 -1 -1 -1 -1 -2 -2 -2 -1 -1 -1 -2 -2 -1 -1 -1 -2 -2 -3 -2 -2 -2 -3 -3 -4 -4 -4 -4 -3 -3 -3 -2 -2 -3 -3 -3 -3 -3 -2 -3 -3
-0 -1 -1 -1 -1 -1 -1 -1 -2 -2 -2 -2 -2 -2 -2 -2 -2 -2 -1 -1 -2 -3 -3 -3 -3 -3 -3 -3 -4 -4 -3 -3 -2 -2 -2 -2 -2 -2 -2 -2 -2 -2 -2 -2
-0 -0 -0 -0 -0 -0 -0 -1 -1 -2 -2 -2 -2 -2 -3 -2 -2 -2 -2 -2 -2 -3 -3 -3 -3 -3 -3 -3 -3 -3 -2 -2 -1 -1 -1 -1 -1 -1 -1 -1 -1 -1 -1 -1
-0 -0 -0 -0 -0 0 0 -0 -1 -1 -2 -2 -3 -3 -3 -3 -2 -1 -1 -2 -2 -3 -3 -2 -2 -2 -2 -2 -2 -2 -1 -1 -0 -1 -1 -1 -1 -1 -1 -1 -1 -1 -1 -1
-0 -0 -1 -1 -0 -0 -0 -0 -1 -1 -2 -2 -3 -3 -3 -3 -2 -1 -1 -2 -3 -3 -2 -2 -1 -1 -1 -1 -1 -1 -1 -0 -0 -0 -1 -1 -1 -1 -1 -1 -1 -1 -0 -0
0 -0 -0 -1 -1 -1 -1 -1 -0 -1 -1 -2 -2 -3 -3 -3 -2 -2 -2 -2 -3 -3 -3 -2 -2 -1 -1 -1 -1 -1 -1 -1 -1 -1 -0 -0 -1 -1 -1 -1 -1 -1 -0 -0
0 0 0 -0 -1 -1 -1 -1 -0 -1 -1 -1 -2 -2 -2 -2 -2 -2 -2 -2 -3 -3 -3 -2 -2 -2 -1 -1 -1 -1 -2 -2 -1 -1 -0 -1 -1 -1 -1 -1 -0 -0 -1 -0
0 0 0 0 0 -1 -1 -1 -1 -1 -1 -1 -2 -2 -2 -2 -2 -2 -2 -1 -2 -2 -2 -1 -1 -2 -1 -1 -2 -2 -2 -2 -2 -1 -1 -1 -1 -1 -1 -1 -1 -0 -1 -1
0 0 0 1 0 -0 -1 -1 -2 -2 -2 -2 -2 -2 -2 -2 -2 -1 -1 -1 -1 -1 -1 -1 -1 -1 -1 -1 -1 -1 -1 -1 -1 -1 -2 -1 -1 -1 -1 -1 -1 -0 -0 -0
-0 0 0 0 -0 -0 -0 -1 -2 -2 -3 -3 -3 -3 -2 -2 -1 -1 -1 -0 -0 -0 -0 0 0 1 1 1 1 0 0 0 -0 -1 -1 -1 -1 -1 -1 -1 -0 0 0 1
-0 0 0 -0 -0 -0 -0 -0 -1 -2 -3 -3 -3 -2 -2 -1 -1 -0 0 0 1 1 1 1 2 3 3 3 3 2 1 1 0 -0 -1 -1 -1 -1 -1 -1 -0 0 1 1